Content
SEND FEEDBACK

Daily
Averages
Monthly
Summary
United States of America

ANN ARBOR, MICHIGAN


Home > North America > United States > Michigan
Elevation: 759 feet     Latitude: 42 17N     Longitude: 083 43W

WEATHER
 
SELECT A DAY
Number of Records: 208,088;   Date Range: 1/1/95 - 11/24/14
 
SHARE

PRINT THIS DATA

[ ← Previous Day ]
WEATHER ALMANAC - MAY 6, 2013
[ Next Day → ]
[ °C ]   °F
Weather ElementAverageHighLow
Temperature60.5 °F73 °F (2:53 pm)46 °F (4:53 am)
Dewpoint42.8 °F48 °F (2:53 pm)37 °F (1:53 am)
Humidity54 %77 % (11:53 pm)38 % (1:53 pm)
Barometer30.02 in30.06 in (8:53 am)29.98 in (4:53 pm)
Wind Speed5.5 mph12.7 mph (3:53 pm)
Wind Gust17.3 mph (1:53 pm)
Weather ElementAverage
Visibility10 mi
Wind DirectionENE (66.1 °)

Weather ElementTotal
Precipitation---
Heating Degree Days5.5 (Base 65)
Growing Degree Days9.5 (Base 50)
Averaged from 23 records on May 6, 2013
WEATHER CONDITIONS BREAKOUT
WIND DIRECTION BREAKOUT
WEATHER BY HOUR - MAY 6, 2013
[ °C ]   °F
Local TimeTemperatureDewpointHumidityBarometerVisibilityWind DirectionWind SpeedGust SpeedPrecipitationEventsConditions
1:53 AM53.1 °F37.0 °F55 %30.02 in10.0 miENE (60°)5.8 mphClear
2:53 AM50.0 °F37.0 °F61 %30.02 in10.0 miENE (70°)4.6 mphClear
3:53 AM48.0 °F37.0 °F66 %30.01 in10.0 miENE (60°)4.6 mphClear
4:53 AM46.0 °F37.9 °F73 %30.01 in10.0 miENE (60°)3.5 mphClear
5:53 AM46.9 °F37.9 °F71 %30.02 in10.0 miENE (70°)3.5 mphClear
6:53 AM46.9 °F39.0 °F74 %30.04 in10.0 miENE (60°)4.6 mphClear
7:53 AM54.0 °F41.0 °F62 %30.05 in10.0 miEast (80°)4.6 mphClear
8:53 AM55.9 °F39.0 °F53 %30.06 in10.0 miEast (100°)5.8 mphClear
9:53 AM61.0 °F39.9 °F46 %30.06 in10.0 miEast (80°)5.8 mphClear
10:53 AM63.0 °F39.9 °F43 %30.06 in10.0 miEast (90°)5.8 mphClear
11:53 AM66.0 °F42.1 °F42 %30.06 in10.0 miEast (90°)8.1 mphClear
12:53 PM69.1 °F44.1 °F40 %30.04 in10.0 miVariable3.5 mphClear
1:53 PM72.0 °F45.0 °F38 %30.02 in10.0 miNE (50°)10.4 mph17.3 mphClear
2:53 PM73.0 °F48.0 °F41 %30.01 in10.0 miENE (60°)9.2 mphClear
3:53 PM73.0 °F48.0 °F41 %30.00 in10.0 miEast (90°)12.7 mphClear
4:53 PM73.0 °F48.0 °F41 %29.98 in10.0 miSE (130°)9.2 mphClear
5:53 PM73.0 °F48.0 °F41 %29.98 in10.0 miESE (120°)10.4 mphClear
6:53 PM71.1 °F45.0 °F39 %29.99 in10.0 miSE (130°)9.2 mphClear
7:53 PM66.9 °F46.9 °F49 %29.99 in10.0 miESE (120°)5.8 mphClear
8:53 PM63.0 °F45.0 °F52 %30.00 in10.0 miCalmClear
9:53 PM57.9 °F46.0 °F65 %30.01 in10.0 miCalmClear
10:53 PM55.0 °F46.0 °F72 %30.03 in10.0 miCalmClear
11:53 PM53.1 °F46.0 °F77 %30.03 in10.0 miCalmClear
Hourly data recorded from KARB, located miles away from Ann Arbor, Michigan







STORIES FROM OUR PARTNERS